Location: Irma
(52.9170°N, 111.2330°W)
Time: 09:00:50
(UTC-06:00)

Amateur Radio Satellites - All Passes

Search period start: 30 April 2016 08:30
Search period end: 01 May 2016 08:30
Location: Irma, 52.9170°N, 111.2330°W

Satellite Date Start Highest point End Downlink Frequencies (MHz)
Time Altitude Azimuth
RS-15 30 Apr 08:35:33 08:47:08 53° 245° (WSW) 08:58:49 29.354- 29.394
CANX-2 30 Apr 08:38:24 08:41:30 19° 90° (E) 08:44:35 2200.000
Cosmos 2491 30 Apr 08:41:54 08:50:43 73° 284° (WNW) 08:59:38 435.465 / 435.565
M-CUBED/EXP-1 PRIME 30 Apr 08:44:44 08:48:56 63° 108° (ESE) 08:52:45 437.505
NOAA 18 30 Apr 08:47:29 08:52:41 45° 297° (WNW) 08:57:50 137.9125
TIGRISAT 30 Apr 08:49:27 08:50:36 11° 49° (NE) 08:51:46 435.000
AAUSAT CUBESAT 2 30 Apr 08:52:55 08:54:13 11° 85° (E) 08:55:30 437.432
PRISM 30 Apr 08:53:23 08:57:26 66° 257° (WSW) 09:01:33 437.425
CUBEBUG 2 30 Apr 08:59:09 09:00:12 11° 83° (E) 09:01:13 437.445
CUTE-I 30 Apr 08:59:47 09:04:47 43° 296° (WNW) 09:09:46 437.470
AUBIESAT-1 30 Apr 09:06:04 09:10:14 85° 112° (ESE) 09:14:03 437.475
ANTELSAT 30 Apr 09:11:10 09:14:03 16° 55° (NE) 09:16:52 437.575/2403.000
CUTE 1.7 + AOD 2 30 Apr 09:11:17 09:15:09 34° 96° (E) 09:19:00 437.475
LilacSat-2 30 Apr 09:14:57 09:17:45 20° 299° (WNW) 09:20:33 437.200
Cosmos 2504 30 Apr 09:23:15 09:30:20 52° 269° (W) 09:37:53 435.465 / 435.565
CINEMA 3 30 Apr 09:26:29 09:31:10 50° 99° (E) 09:35:37 145.822/145.860
ISS 30 Apr 09:29:19 09:31:33 17° 145° (SE) 09:33:46 145.825
ZACube-1 30 Apr 09:34:50 09:36:24 12° 85° (E) 09:37:55 437.345
STRAND 1 30 Apr 09:35:02 09:36:47 12° 277° (W) 09:38:34 437.568
SO-50 30 Apr 09:36:31 09:41:27 83° 132° (SE) 09:46:23 436.795
HO-68 30 Apr 09:40:10 09:47:17 61° 103° (ESE) 09:54:21 435.675
SEEDS 30 Apr 09:43:46 09:47:52 52° 100° (E) 09:51:58 437.485
Cubesat XI-IV 30 Apr 09:43:49 09:47:55 23° 305° (NW) 09:52:00 437.490
GONETS M04 30 Apr 09:43:52 09:48:45 16° 38° (NE) 09:53:37
GOMX 1 30 Apr 09:48:30 09:53:18 31° 299° (WNW) 09:58:01 467.674
YUBILEINY 30 Apr 09:52:25 09:56:20 14° 294° (WNW) 10:00:15 435.215
AO-7 30 Apr 09:52:28 09:56:08 14° 343° (NNW) 09:59:48 29.400- 29.500
COMPASS 1 30 Apr 09:52:33 09:56:35 48° 99° (E) 10:00:37 437.405
NOAA 15 30 Apr 09:53:08 09:56:13 16° 311° (NW) 09:59:18 137.62
DOVE 4 30 Apr 09:59:07 10:04:01 40° 295° (WNW) 10:08:44 437.250
BRITE-PL 30 Apr 10:00:30 10:04:14 18° 308° (NW) 10:07:59 437.365/2234.400
UNISAT 6 30 Apr 10:03:32 10:07:52 40° 66° (ENE) 10:12:09 437.425
CANX-2 30 Apr 10:13:34 10:17:43 56° 289° (WNW) 10:21:51 2200.000
M-CUBED/EXP-1 PRIME 30 Apr 10:19:53 10:23:05 21° 309° (NW) 10:26:05 437.505
Oscar 11 30 Apr 10:21:05 10:25:03 35° 96° (E) 10:29:00 145.826/435.025
TIGRISAT 30 Apr 10:21:51 10:26:23 54° 69° (ENE) 10:30:51 435.000
AAUSAT CUBESAT 2 30 Apr 10:26:14 10:30:24 84° 104° (ESE) 10:34:33 437.432
NANOSAT C BR1 30 Apr 10:26:41 10:29:30 17° 57° (ENE) 10:32:19 145.865
FUNcube-1 30 Apr 10:28:36 10:32:30 34° 95° (E) 10:36:19 145.935
DELFI C3 30 Apr 10:28:44 10:31:52 22° 92° (E) 10:34:59 145.870
NOAA 18 30 Apr 10:30:17 10:32:06 12° 318° (NW) 10:33:53 137.9125
UWE-3 30 Apr 10:31:53 10:36:11 54° 100° (E) 10:40:19 435.000/436.395/437.385
CUBEBUG 2 30 Apr 10:33:13 10:37:42 76° 104° (ESE) 10:41:59 437.445
BUGSAT 1 30 Apr 10:40:03 10:41:57 13° 53° (NE) 10:43:52 437.445
AUBIESAT-1 30 Apr 10:41:30 10:44:09 17° 312° (NW) 10:46:40 437.475
CUTE-I 30 Apr 10:42:33 10:43:35 11° 318° (NW) 10:44:36 437.470
Cosmos 2491 30 Apr 10:42:43 10:49:25 23° 311° (NW) 10:56:10 435.465 / 435.565
ANTELSAT 30 Apr 10:45:29 10:50:09 88° 76° (ENE) 10:54:46 437.575/2403.000
CUTE 1.7 + AOD 2 30 Apr 10:47:14 10:50:59 32° 295° (WNW) 10:54:45 437.475
RS-15 30 Apr 10:50:51 10:56:30 15° 270° (W) 11:02:12 29.354- 29.394
JAS-2 30 Apr 10:59:58 11:03:26 15° 38° (NE) 11:07:04 435.910
HUMSAT D 30 Apr 11:01:47 11:05:04 23° 92° (E) 11:08:19 437.325/437.525
CINEMA 3 30 Apr 11:04:01 11:08:04 27° 299° (WNW) 11:11:58 145.822/145.860
ISS 30 Apr 11:04:20 11:07:30 51° 164° (SSE) 11:10:43 145.825
ZACube-1 30 Apr 11:09:07 11:13:27 86° 109° (ESE) 11:17:38 437.345
AIST 1 30 Apr 11:10:13 11:13:28 20° 63° (ENE) 11:16:42
QB50P2 30 Apr 11:15:11 11:19:17 45° 68° (ENE) 11:23:23 145.880/145.840
POLYITAN 1 30 Apr 11:17:16 11:21:24 46° 68° (ENE) 11:25:32 437.675
SO-50 30 Apr 11:18:02 11:22:27 32° 334° (NNW) 11:26:50 436.795
DUCHIFAT 1 30 Apr 11:18:53 11:22:56 43° 67° (ENE) 11:27:00 145.980
Cosmos 2504 30 Apr 11:19:57 11:21:59 11° 291° (WNW) 11:24:03 435.465 / 435.565
SEEDS 30 Apr 11:20:04 11:23:18 22° 299° (WNW) 11:26:33 437.485
POPSAT HIP 1 30 Apr 11:20:39 11:24:46 48° 69° (ENE) 11:28:55 437.405
QB50P1 30 Apr 11:24:07 11:28:17 52° 69° (ENE) 11:32:29 145.935-145.965
HO-68 30 Apr 11:28:16 11:34:46 39° 304° (NW) 11:41:16 435.675
COMPASS 1 30 Apr 11:28:37 11:31:56 24° 298° (WNW) 11:35:16 437.405
Oscar 19 30 Apr 11:31:54 11:33:18 11° 44° (NE) 11:34:44 437.125/150
GONETS M04 30 Apr 11:39:58 11:48:26 48° 67° (ENE) 11:56:47
UNISAT 6 30 Apr 11:40:29 11:44:40 32° 265° (W) 11:48:48 437.425
AO-7 30 Apr 11:42:33 11:45:30 12° 11° (N) 11:48:28 29.400- 29.500
Cosmos 2499 30 Apr 11:44:20 11:50:45 30° 60° (ENE) 11:57:31 435.465 / 435.565
AISAT 30 Apr 11:51:48 11:54:14 14° 87° (E) 11:56:38 437.250
Oscar 11 30 Apr 11:57:19 12:01:11 33° 295° (WNW) 12:05:01 145.826/435.025
ESTCUBE 1 30 Apr 11:58:12 12:01:37 21° 91° (E) 12:05:01 437.505/2401.250
TIGRISAT 30 Apr 11:59:36 12:03:21 24° 268° (W) 12:07:05 435.000
NANOSAT C BR1 30 Apr 12:00:27 12:04:44 77° 255° (WSW) 12:09:03 145.865
AAUSAT CUBESAT 2 30 Apr 12:02:57 12:05:21 15° 304° (WNW) 12:07:45 437.432
DELFI C3 30 Apr 12:03:09 12:06:58 45° 291° (WNW) 12:10:46 145.870
FUNcube-1 30 Apr 12:04:56 12:08:46 32° 295° (WNW) 12:12:28 145.935
UWE-3 30 Apr 12:08:56 12:12:20 23° 300° (WNW) 12:15:40 435.000/436.395/437.385
CUBEBUG 2 30 Apr 12:10:49 12:13:48 18° 304° (WNW) 12:16:43 437.445
BUGSAT 1 30 Apr 12:12:23 12:16:37 73° 72° (ENE) 12:20:53 437.445
ANTELSAT 30 Apr 12:24:54 12:27:30 15° 273° (W) 12:30:05 437.575/2403.000
50 SAT 30 Apr 12:30:19 12:33:35 29° 96° (E) 12:36:49 437.505
CUBEBUG 1 30 Apr 12:35:27 12:39:28 32° 95° (E) 12:43:27 437.445
HUMSAT D 30 Apr 12:37:01 12:40:57 45° 291° (WNW) 12:44:50 437.325/437.525
ISS 30 Apr 12:40:35 12:43:51 71° 183° (S) 12:47:07 145.825
JAS-2 30 Apr 12:40:58 12:46:48 48° 62° (ENE) 12:53:25 435.910
Gurwin Techsat 1B 30 Apr 12:40:59 12:44:22 17° 51° (NE) 12:47:44 435.225
ZACube-1 30 Apr 12:46:37 12:49:09 16° 305° (NW) 12:51:38 437.345
AIST 1 30 Apr 12:47:08 12:51:31 62° 263° (W) 12:55:53
QB50P2 30 Apr 12:51:43 12:55:18 25° 267° (W) 12:58:52 145.880/145.840
POLYITAN 1 30 Apr 12:53:51 12:57:25 25° 267° (W) 13:00:59 437.675
VELOX 1 30 Apr 12:55:11 12:59:32 47° 100° (E) 13:03:51 145.980
DUCHIFAT 1 30 Apr 12:55:12 12:58:49 26° 267° (W) 13:02:26 145.980
POPSAT HIP 1 30 Apr 12:57:19 13:00:48 24° 267° (W) 13:04:18 437.405
SO-50 30 Apr 13:00:36 13:04:18 21° 358° (N) 13:07:56 436.795
QB50P1 30 Apr 13:01:01 13:04:22 22° 268° (W) 13:07:43 145.935-145.965
DX 1 30 Apr 13:01:45 13:06:02 48° 100° (E) 13:10:18 434.975-435.025
Oscar 19 30 Apr 13:06:32 13:11:27 46° 65° (ENE) 13:16:26 437.125/150
UKube-1 30 Apr 13:13:21 13:17:38 52° 101° (E) 13:21:53 .
HO-68 30 Apr 13:17:27 13:20:40 14° 328° (NNW) 13:23:53 435.675
AO-85 30 Apr 13:19:12 13:22:39 17° 110° (ESE) 13:26:05 145.980
AISAT 30 Apr 13:26:50 13:31:22 87° 286° (WNW) 13:35:51 437.250
AO-7 30 Apr 13:29:15 13:35:25 24° 38° (NE) 13:41:36 29.400- 29.500
ESTCUBE 1 30 Apr 13:34:20 13:38:49 60° 290° (WNW) 13:43:16 437.505/2401.250
GONETS M04 30 Apr 13:37:02 13:45:28 53° 271° (W) 13:53:48
Cosmos 2499 30 Apr 13:37:09 13:44:39 78° 262° (W) 13:52:44 435.465 / 435.565
NANOSAT C BR1 30 Apr 13:40:12 13:41:15 11° 275° (W) 13:42:17 145.865
SPROUT 30 Apr 13:48:21 13:52:41 65° 102° (ESE) 13:56:56 437.525
BUGSAT 1 30 Apr 13:49:54 13:52:31 16° 272° (W) 13:55:08 437.445
50 SAT 30 Apr 14:04:11 14:07:23 28° 295° (WNW) 14:10:33 437.505
CUBEBUG 1 30 Apr 14:11:42 14:15:49 38° 295° (WNW) 14:19:55 437.445
ISS 30 Apr 14:17:03 14:20:06 36° 203° (SSW) 14:23:09 145.825
Gurwin Techsat 1B 30 Apr 14:18:14 14:23:32 76° 71° (ENE) 14:28:52 435.225
ITAMSAT 1 30 Apr 14:19:16 14:24:05 40° 63° (ENE) 14:28:55 435.822/435.867
JAS-2 30 Apr 14:26:20 14:32:02 41° 266° (W) 14:38:28 435.910
VELOX 1 30 Apr 14:32:02 14:35:49 27° 299° (WNW) 14:39:34 145.980
TISAT 1 30 Apr 14:32:32 14:36:46 59° 102° (ESE) 14:40:55 437.305
DX 1 30 Apr 14:38:22 14:42:01 26° 299° (WNW) 14:45:39 434.975-435.025
SO-50 30 Apr 14:41:59 14:46:12 28° 22° (NNE) 14:50:19 436.795
ITUPSAT 1 30 Apr 14:44:14 14:47:38 19° 90° (E) 14:51:03 437.325
Oscar 19 30 Apr 14:46:18 14:50:57 33° 265° (W) 14:55:39 437.125/150
UKube-1 30 Apr 14:49:56 14:53:26 24° 300° (WNW) 14:56:55 .
SWISSCUBE 30 Apr 14:54:46 14:58:45 26° 93° (E) 15:02:42 437.505
AO-85 30 Apr 14:56:59 15:02:27 74° 129° (SE) 15:07:47 145.980
AISAT 30 Apr 15:04:32 15:07:14 16° 306° (NW) 15:09:55 437.250
ESTCUBE 1 30 Apr 15:13:10 15:14:46 12° 310° (NW) 15:16:22 437.505/2401.250
AO-7 30 Apr 15:18:41 15:26:51 66° 61° (ENE) 15:35:03 29.400- 29.500
SPROUT 30 Apr 15:25:06 15:28:14 20° 302° (WNW) 15:31:21 437.525
BEESAT 30 Apr 15:27:59 15:32:34 44° 99° (E) 15:37:06 436.000
Cosmos 2499 30 Apr 15:31:39 15:36:40 20° 284° (WNW) 15:41:54 435.465 / 435.565
HORYU 2 30 Apr 15:34:21 15:37:22 18° 55° (NE) 15:40:23 437.375
GONETS M04 30 Apr 15:36:33 15:40:06 13° 295° (WNW) 15:43:38
ISS 30 Apr 15:55:23 15:55:52 10° 222° (SW) 15:56:22 145.825
ITAMSAT 1 30 Apr 15:58:47 16:03:36 38° 263° (W) 16:08:27 435.822/435.867
Gurwin Techsat 1B 30 Apr 16:00:11 16:04:06 20° 271° (W) 16:08:01 435.225
TISAT 1 30 Apr 16:08:53 16:12:04 21° 301° (WNW) 16:15:14 437.305
CUSAT 1 30 Apr 16:13:36 16:17:04 49° 95° (E) 16:21:36 437.405
Cubesat XI-IV 30 Apr 16:17:02 16:17:54 10° 42° (NE) 16:18:46 437.490
ITUPSAT 1 30 Apr 16:21:14 16:26:00 70° 289° (WNW) 16:30:45 437.325
NOAA 15 30 Apr 16:22:02 16:24:58 15° 48° (NE) 16:27:55 137.62
SO-50 30 Apr 16:22:30 16:27:22 83° 46° (NE) 16:32:02 436.795
MOZHAYETS 4 30 Apr 16:22:46 16:25:50 18° 88° (E) 16:28:53
O/OREOS (USA 219) 30 Apr 16:28:24 16:32:58 64° 115° (ESE) 16:37:32 437.305
PCSat 30 Apr 16:31:36 16:36:01 26° 111° (ESE) 16:40:26 145.827
SWISSCUBE 30 Apr 16:32:12 16:36:50 52° 293° (WNW) 16:41:28 437.505
DANDE 30 Apr 16:33:50 16:36:26 27° 90° (E) 16:39:36 436.750
KKS-1 30 Apr 16:37:56 16:41:59 32° 96° (E) 16:46:00 437.445
AO-85 30 Apr 16:38:22 16:43:25 37° 331° (NNW) 16:48:15 145.980
Cosmos 2491 30 Apr 16:48:06 16:55:13 26° 52° (NE) 17:02:16 435.465 / 435.565
AUBIESAT-1 30 Apr 16:52:45 16:53:43 11° 41° (NE) 16:54:40 437.475
NOAA 18 30 Apr 17:00:08 17:04:37 26° 55° (NE) 17:09:05 137.9125
STARS 30 Apr 17:01:40 17:05:35 30° 95° (E) 17:09:29 437.465
BEESAT 30 Apr 17:06:03 17:10:15 32° 298° (WNW) 17:14:26 436.000
HORYU 2 30 Apr 17:08:56 17:13:25 80° 254° (WSW) 17:17:55 437.375
CUTE-I 30 Apr 17:09:25 17:13:28 22° 54° (NE) 17:17:30 437.470
AO-7 30 Apr 17:12:32 17:20:08 39° 264° (W) 17:27:48 29.400- 29.500
GOMX 1 30 Apr 17:47:27 17:51:18 22° 55° (NE) 17:55:18 467.674
Cubesat XI-IV 30 Apr 17:51:44 17:56:42 42° 64° (ENE) 18:01:42 437.490
CUSAT 1 30 Apr 17:56:45 17:59:46 21° 305° (NW) 18:03:26 437.405
DOVE 4 30 Apr 17:57:13 18:00:17 16° 51° (NE) 18:03:25 437.250
NOAA 15 30 Apr 17:58:37 18:03:50 65° 68° (ENE) 18:09:06 137.62
MOZHAYETS 4 30 Apr 17:58:58 18:03:32 72° 288° (WNW) 18:08:05
BRITE-PL 30 Apr 17:59:43 18:04:18 41° 64° (ENE) 18:09:14 437.365/2234.400
CUBESAT XI-V 30 Apr 18:00:33 18:04:05 21° 90° (E) 18:07:38 437.345
ITUPSAT 1 30 Apr 18:00:33 18:03:03 14° 309° (NW) 18:05:34 437.325
M-CUBED/EXP-1 PRIME 30 Apr 18:02:04 18:06:21 35° 58° (ENE) 18:10:34 437.505
SO-50 30 Apr 18:03:51 18:07:18 20° 246° (WSW) 18:10:40 436.795
O/OREOS (USA 219) 30 Apr 18:08:56 18:12:47 25° 316° (NW) 18:16:38 437.305
SWISSCUBE 30 Apr 18:12:17 18:13:39 11° 313° (NW) 18:15:00 437.505
PCSat 30 Apr 18:13:32 18:18:58 73° 312° (NW) 18:24:27 145.827
KKS-1 30 Apr 18:14:28 18:18:38 38° 295° (WNW) 18:22:46 437.445
DANDE 30 Apr 18:16:53 18:19:24 21° 300° (WNW) 18:22:25 436.750
AO-85 30 Apr 18:21:06 18:25:16 22° 354° (N) 18:29:14 145.980
AUBIESAT-1 30 Apr 18:22:49 18:27:14 43° 61° (ENE) 18:31:32 437.475
LilacSat-2 30 Apr 18:27:26 18:31:16 61° 72° (ENE) 18:35:08 437.200
HO-68 30 Apr 18:29:31 18:35:02 25° 46° (NE) 18:40:34 435.675
STARS 30 Apr 18:37:55 18:42:04 40° 295° (WNW) 18:46:11 437.465
NOAA 18 30 Apr 18:39:20 18:44:51 71° 255° (WSW) 18:50:23 137.9125
Cosmos 2491 30 Apr 18:44:44 18:53:39 81° 78° (ENE) 19:02:27 435.465 / 435.565
CUTE-I 30 Apr 18:47:39 18:53:00 80° 255° (WSW) 18:58:21 437.470
HORYU 2 30 Apr 18:49:01 18:50:45 12° 274° (W) 18:52:28 437.375
CINEMA 3 30 Apr 18:58:19 19:01:41 18° 55° (NE) 19:05:03 145.822/145.860
YUBILEINY 30 Apr 19:05:21 19:13:14 40° 84° (E) 19:21:05 435.215
SEEDS 30 Apr 19:08:16 19:10:12 13° 54° (NE) 19:12:07 437.485
COMPASS 1 30 Apr 19:16:39 19:18:09 12° 53° (NE) 19:19:40 437.405
GOMX 1 30 Apr 19:23:41 19:28:45 82° 256° (WSW) 19:34:10 467.674
Cubesat XI-IV 30 Apr 19:31:54 19:36:51 38° 263° (W) 19:41:50 437.490
DOVE 4 30 Apr 19:31:59 19:37:05 70° 72° (ENE) 19:42:24 437.250
M-CUBED/EXP-1 PRIME 30 Apr 19:36:20 19:40:49 42° 256° (WSW) 19:45:16 437.505
CANX-2 30 Apr 19:36:45 19:40:26 30° 64° (ENE) 19:44:08 2200.000
CUBESAT XI-V 30 Apr 19:37:15 19:41:54 63° 289° (WNW) 19:46:32 437.345
MOZHAYETS 4 30 Apr 19:37:42 19:39:56 14° 308° (NW) 19:42:12
BRITE-PL 30 Apr 19:38:21 19:42:51 36° 266° (W) 19:47:43 437.365/2234.400
NOAA 15 30 Apr 19:39:51 19:44:04 24° 269° (W) 19:48:21 137.62
AAUSAT CUBESAT 2 30 Apr 19:48:21 19:51:09 18° 58° (ENE) 19:53:58 437.432
Oscar 11 30 Apr 19:49:31 19:50:18 10° 50° (NE) 19:51:07 145.826/435.025
STRAND 1 30 Apr 19:56:07 20:00:25 26° 93° (E) 20:04:42 437.568
FUNcube-1 30 Apr 19:57:08 19:58:23 11° 51° (NE) 19:59:38 145.935
AUBIESAT-1 30 Apr 19:57:36 20:01:47 32° 258° (WSW) 20:05:55 437.475
PCSat 30 Apr 19:58:45 20:03:16 26° 335° (NNW) 20:07:49 145.827
UWE-3 30 Apr 19:59:58 20:02:53 17° 56° (NE) 20:05:44 435.000/436.395/437.385
BEESAT 3 30 Apr 20:00:09 20:03:42 33° 122° (ESE) 20:07:18 437.485
CUBEBUG 2 30 Apr 20:01:27 20:05:04 22° 59° (ENE) 20:08:39 437.445
AO-85 30 Apr 20:02:52 20:07:18 27° 19° (NNE) 20:11:25 145.980
BEESAT 2 30 Apr 20:03:12 20:06:24 24° 118° (ESE) 20:09:38 435.950
LilacSat-2 30 Apr 20:03:32 20:05:59 16° 271° (W) 20:08:26 437.200
CUTE 1.7 + AOD 2 30 Apr 20:09:30 20:13:36 52° 70° (ENE) 20:17:43 437.475
HO-68 30 Apr 20:14:42 20:21:52 81° 69° (ENE) 20:29:04 435.675
Cosmos 2504 30 Apr 20:17:24 20:23:09 27° 81° (E) 20:28:53 435.465 / 435.565
NOAA 18 30 Apr 20:23:54 20:26:32 13° 276° (W) 20:29:10 137.9125
PRISM 30 Apr 20:30:45 20:32:14 12° 86° (E) 20:33:44 437.425
CUTE-I 30 Apr 20:31:01 20:33:56 15° 275° (W) 20:36:51 437.470
CINEMA 3 30 Apr 20:33:08 20:38:11 88° 77° (ENE) 20:43:14 145.822/145.860
ZACube-1 30 Apr 20:35:22 20:38:52 22° 60° (ENE) 20:42:19 437.345
SEEDS 30 Apr 20:41:03 20:45:14 79° 74° (ENE) 20:49:25 437.485
Cosmos 2491 30 Apr 20:42:24 20:49:35 29° 282° (WNW) 20:56:45 435.465 / 435.565
COMPASS 1 30 Apr 20:48:53 20:53:00 71° 73° (ENE) 20:57:08 437.405
RS-15 30 Apr 20:59:48 21:06:21 17° 93° (E) 21:13:03 29.354- 29.394
YUBILEINY 30 Apr 21:01:04 21:09:43 62° 288° (WNW) 21:18:22 435.215
GOMX 1 30 Apr 21:04:49 21:07:46 15° 277° (W) 21:10:47 467.674
DOVE 4 30 Apr 21:11:19 21:15:18 22° 272° (W) 21:19:24 437.250
CANX-2 30 Apr 21:12:19 21:16:14 37° 263° (W) 21:20:11 2200.000
CUBESAT XI-V 30 Apr 21:16:26 21:18:26 13° 309° (NW) 21:20:25 437.345
AIST 2 30 Apr 21:17:10 21:18:58 13° 111° (ESE) 21:20:47 435.215
DELFI C3 30 Apr 21:20:27 21:23:53 29° 65° (ENE) 21:27:20 145.870
Oscar 11 30 Apr 21:21:20 21:25:34 57° 71° (ENE) 21:29:49 145.826/435.025
AAUSAT CUBESAT 2 30 Apr 21:22:08 21:26:14 67° 258° (WSW) 21:30:22 437.432
FUNcube-1 30 Apr 21:29:21 21:33:47 58° 71° (ENE) 21:38:10 145.935
UWE-3 30 Apr 21:34:06 21:38:46 90° 255° (WSW) 21:43:21 435.000/436.395/437.385
STRAND 1 30 Apr 21:34:56 21:39:56 56° 292° (WNW) 21:44:55 437.568
CUBEBUG 2 30 Apr 21:36:36 21:41:19 66° 258° (WSW) 21:45:59 437.445
BEESAT 3 30 Apr 21:37:33 21:41:21 44° 322° (NW) 21:45:11 437.485
BEESAT 2 30 Apr 21:40:02 21:43:59 59° 318° (NW) 21:47:58 435.950
AO-85 30 Apr 21:43:34 21:48:39 71° 43° (NE) 21:53:15 145.980
PCSat 30 Apr 21:44:45 21:48:30 18° 1° (N) 21:52:15 145.827
CUTE 1.7 + AOD 2 30 Apr 21:46:32 21:49:45 21° 269° (W) 21:53:00 437.475
HUMSAT D 30 Apr 21:58:30 22:02:22 35° 66° (ENE) 22:06:12 437.325/437.525
PRISM 30 Apr 22:04:02 22:08:14 86° 101° (E) 22:12:25 437.425
HO-68 30 Apr 22:04:32 22:10:23 26° 270° (W) 22:16:15 435.675
CUBEBUG 1 30 Apr 22:04:56 22:05:51 11° 49° (NE) 22:06:46 437.445
Cosmos 2504 30 Apr 22:08:37 22:15:51 74° 283° (WNW) 22:23:04 435.465 / 435.565
ZACube-1 30 Apr 22:10:21 22:14:51 60° 259° (W) 22:19:16 437.345
CINEMA 3 30 Apr 22:12:48 22:15:59 17° 274° (W) 22:19:11 145.822/145.860
SEEDS 30 Apr 22:19:17 22:21:30 14° 273° (W) 22:23:45 437.485
VELOX 1 30 Apr 22:24:02 22:26:42 16° 54° (NE) 22:29:21 145.980
COMPASS 1 30 Apr 22:26:35 22:29:04 15° 272° (W) 22:31:33 437.405
DX 1 30 Apr 22:28:59 22:31:37 16° 54° (NE) 22:34:15 434.975-435.025
ANTELSAT 30 Apr 22:33:09 22:34:50 12° 85° (E) 22:36:32 437.575/2403.000
UKube-1 30 Apr 22:39:38 22:42:20 16° 55° (NE) 22:45:01 .
AIST 2 30 Apr 22:52:38 22:56:46 76° 129° (SE) 23:00:56 435.215
AISAT 30 Apr 22:54:24 22:58:09 27° 61° (ENE) 23:01:55 437.250
DELFI C3 30 Apr 22:55:09 22:58:45 33° 264° (W) 23:02:22 145.870
Oscar 11 30 Apr 22:58:52 23:02:04 20° 270° (W) 23:05:17 145.826/435.025
YUBILEINY 30 Apr 23:02:45 23:08:42 20° 315° (NW) 23:14:41 435.215
ESTCUBE 1 30 Apr 23:03:14 23:07:22 38° 65° (ENE) 23:11:33 437.505/2401.250
RS-15 30 Apr 23:04:54 23:15:57 60° 119° (ESE) 23:27:36 29.354- 29.394
FUNcube-1 30 Apr 23:06:56 23:10:23 21° 269° (W) 23:13:47 145.935
UWE-3 30 Apr 23:13:23 23:15:52 14° 274° (W) 23:18:20 435.000/436.395/437.385
SPROUT 30 Apr 23:13:34 23:16:25 17° 56° (ENE) 23:19:15 437.525
50 SAT 30 Apr 23:14:40 23:18:02 35° 67° (ENE) 23:21:24 437.505
O/OREOS (USA 219) 30 Apr 23:14:44 23:17:22 15° 33° (NNE) 23:19:59 437.305
STRAND 1 30 Apr 23:15:55 23:18:07 13° 313° (NW) 23:20:19 437.568
BEESAT 3 30 Apr 23:17:15 23:19:59 17° 345° (NNW) 23:22:42 437.485
CUBEBUG 2 30 Apr 23:17:58 23:18:49 10° 277° (W) 23:19:40 437.445
BEESAT 2 30 Apr 23:19:36 23:22:36 20° 340° (NNW) 23:25:37 435.950
AO-85 30 Apr 23:24:44 23:28:41 25° 245° (WSW) 23:32:20 145.980
UNISAT 6 30 Apr 23:25:44 23:29:48 35° 96° (E) 23:33:45 437.425
PCSat 30 Apr 23:29:02 23:33:42 28° 27° (NNE) 23:38:20 145.827
HUMSAT D 30 Apr 23:34:18 23:38:03 30° 265° (W) 23:41:48 437.325/437.525
CUBEBUG 1 30 Apr 23:36:56 23:41:13 55° 69° (ENE) 23:45:34 437.445
PRISM 30 Apr 23:40:33 23:43:01 15° 305° (NW) 23:45:28 437.425
NANOSAT C BR1 30 Apr 23:40:45 23:42:22 12° 85° (E) 23:43:59 145.865
TIGRISAT 30 Apr 23:43:58 23:48:15 49° 99° (E) 23:52:25 435.000
TISAT 1 30 Apr 23:56:16 23:58:52 16° 55° (NE) 00:01:28 437.305
VELOX 1 30 Apr 23:58:05 00:02:32 87° 71° (ENE) 00:07:02 145.980
DX 1 01 May 00:02:50 00:07:12 89° 101° (E) 00:11:37 434.975-435.025
Cosmos 2504 01 May 00:05:42 00:10:42 20° 309° (NW) 00:15:43 435.465 / 435.565
ANTELSAT 01 May 00:07:55 00:12:20 85° 102° (ESE) 00:16:39 437.575/2403.000
UKube-1 01 May 00:13:29 00:17:49 86° 255° (WSW) 00:22:12 .
QB50P2 01 May 00:29:46 00:33:43 35° 96° (E) 00:37:38 145.880/145.840
AISAT 01 May 00:30:09 00:34:27 47° 261° (W) 00:38:48 437.250
POLYITAN 1 01 May 00:31:54 00:35:51 36° 97° (E) 00:39:46 437.675
AIST 2 01 May 00:32:04 00:35:40 28° 332° (NNW) 00:39:17 435.215
Cosmos 2499 01 May 00:32:28 00:36:22 16° 73° (ENE) 00:40:17 435.465 / 435.565
DUCHIFAT 1 01 May 00:32:36 00:36:28 33° 96° (E) 00:40:17 145.980
SWISSCUBE 01 May 00:32:49 00:34:36 12° 48° (NE) 00:36:24 437.505
POPSAT HIP 1 01 May 00:35:06 00:39:05 37° 97° (E) 00:43:02 437.405
QB50P1 01 May 00:38:31 00:42:35 41° 98° (E) 00:46:35 145.935-145.965
ESTCUBE 1 01 May 00:40:14 00:44:16 32° 265° (W) 00:48:19 437.505/2401.250
SPROUT 01 May 00:47:32 00:51:52 78° 257° (WSW) 00:56:13 437.525
50 SAT 01 May 00:48:56 00:51:57 24° 266° (W) 00:54:58 437.505
GONETS M04 01 May 00:48:59 00:57:05 42° 85° (E) 01:05:10
O/OREOS (USA 219) 01 May 00:53:17 00:57:48 57° 56° (NE) 01:02:15 437.305
BEESAT 3 01 May 00:56:37 00:59:06 16° 9° (N) 01:01:34 437.485
CUSAT 1 01 May 00:56:52 01:01:41 21° 56° (NE) 01:07:06 437.405
BEESAT 2 01 May 00:59:25 01:01:51 15° 4° (N) 01:04:16 435.950
UNISAT 6 01 May 01:02:33 01:06:30 33° 296° (WNW) 01:10:23 437.425
BEESAT 01 May 01:04:27 01:07:43 19° 55° (NE) 01:11:00 436.000
PCSat 01 May 01:12:24 01:17:53 81° 49° (NE) 01:23:19 145.827
CUBEBUG 1 01 May 01:14:27 01:17:51 22° 269° (W) 01:21:16 437.445
NANOSAT C BR1 01 May 01:14:31 01:18:48 86° 103° (ESE) 01:23:02 145.865
RS-15 01 May 01:17:00 01:28:32 65° 327° (NNW) 01:40:42 29.354- 29.394
DANDE 01 May 01:20:23 01:23:37 15° 54° (NE) 01:27:14 436.750
TIGRISAT 01 May 01:21:07 01:24:43 25° 299° (WNW) 01:28:14 435.000
AIST 1 01 May 01:22:23 01:26:35 54° 96° (E) 01:30:52
BUGSAT 1 01 May 01:23:35 01:27:46 54° 101° (E) 01:31:52 437.445
JAS-2 01 May 01:27:38 01:34:16 31° 89° (E) 01:41:01 435.910
TISAT 1 01 May 01:29:42 01:33:58 85° 255° (WSW) 01:38:17 437.305
VELOX 1 01 May 01:37:20 01:39:40 14° 273° (W) 01:42:02 145.980
DX 1 01 May 01:41:56 01:44:04 13° 273° (W) 01:46:13 434.975-435.025
ANTELSAT 01 May 01:45:45 01:48:29 16° 305° (NW) 01:51:10 437.575/2403.000
UKube-1 01 May 01:52:47 01:54:35 12° 274° (W) 01:56:24 .
ITUPSAT 1 01 May 01:56:25 02:00:55 43° 65° (ENE) 02:05:26 437.325
QB50P2 01 May 02:05:43 02:09:30 32° 296° (WNW) 02:13:16 145.880/145.840
SWISSCUBE 01 May 02:06:49 02:11:29 57° 69° (ENE) 02:16:10 437.505
POLYITAN 1 01 May 02:07:51 02:11:38 31° 296° (WNW) 02:15:22 437.675
DUCHIFAT 1 01 May 02:08:21 02:12:10 33° 295° (WNW) 02:15:58 145.980
KKS-1 01 May 02:08:29 02:10:10 12° 50° (NE) 02:11:51 437.445
POPSAT HIP 1 01 May 02:11:04 02:14:48 30° 297° (WNW) 02:18:31 437.405
AIST 2 01 May 02:12:46 02:15:25 16° 356° (N) 02:18:03 435.215
QB50P1 01 May 02:14:35 02:18:14 28° 298° (WNW) 02:21:51 145.935-145.965
Cosmos 2499 01 May 02:21:06 02:28:06 72° 96° (E) 02:35:14 435.465 / 435.565
SPROUT 01 May 02:27:19 02:28:35 11° 275° (W) 02:29:53 437.525
Gurwin Techsat 1B 01 May 02:29:00 02:32:47 19° 88° (E) 02:36:32 435.225
STARS 01 May 02:31:25 02:32:38 11° 49° (NE) 02:33:50 437.465
O/OREOS (USA 219) 01 May 02:33:17 02:36:52 23° 256° (WSW) 02:40:25 437.305
BEESAT 3 01 May 02:34:18 02:37:55 32° 32° (NNE) 02:41:30 437.485
BEESAT 2 01 May 02:37:29 02:40:56 26° 28° (NNE) 02:44:21 435.950
CUSAT 1 01 May 02:38:09 02:44:45 72° 75° (ENE) 02:52:37 437.405
BEESAT 01 May 02:40:11 02:44:58 84° 256° (WSW) 02:49:46 436.000
GONETS M04 01 May 02:44:57 02:53:41 59° 289° (WNW) 03:02:25
Oscar 19 01 May 02:50:47 02:55:56 57° 101° (E) 03:01:03 437.125/150
NANOSAT C BR1 01 May 02:51:27 02:53:59 16° 305° (NW) 02:56:32 145.865
PCSat 01 May 02:56:35 03:00:43 23° 251° (WSW) 03:04:50 145.827
BUGSAT 1 01 May 02:59:33 03:02:51 22° 300° (WNW) 03:06:06 437.445
AIST 1 01 May 03:01:13 03:04:34 21° 296° (WNW) 03:07:56
DANDE 01 May 03:01:41 03:07:24 58° 73° (ENE) 03:14:43 436.750
TISAT 1 01 May 03:08:41 03:10:20 12° 274° (W) 03:12:00 437.305
JAS-2 01 May 03:12:17 03:19:54 79° 290° (WNW) 03:27:48 435.910
AO-7 01 May 03:15:46 03:19:06 13° 79° (E) 03:22:24 29.400- 29.500
MOZHAYETS 4 01 May 03:30:05 03:34:10 33° 64° (ENE) 03:38:15
RS-15 01 May 03:32:05 03:43:29 48° 360° (N) 03:55:18 29.354- 29.394
ITUPSAT 1 01 May 03:34:40 03:38:54 31° 265° (W) 03:43:09 437.325
KKS-1 01 May 03:41:28 03:45:53 61° 70° (ENE) 03:50:21 437.445
SWISSCUBE 01 May 03:45:50 03:49:38 23° 268° (W) 03:53:27 437.505
AIST 2 01 May 03:52:05 03:55:18 21° 20° (NNE) 03:58:30 435.215
STARS 01 May 04:03:44 04:08:06 56° 69° (ENE) 04:12:28 437.465
ITAMSAT 1 01 May 04:04:48 04:09:50 48° 99° (E) 04:14:50 435.822/435.867
Gurwin Techsat 1B 01 May 04:08:02 04:13:24 80° 288° (WNW) 04:18:43 435.225
BEESAT 3 01 May 04:11:57 04:15:50 53° 233° (SW) 04:19:40 437.485
BEESAT 2 01 May 04:15:11 04:19:12 76° 229° (SW) 04:23:11 435.950
Cosmos 2499 01 May 04:15:57 04:21:58 29° 300° (WNW) 04:28:07 435.465 / 435.565
CUSAT 1 01 May 04:20:49 04:26:36 31° 271° (W) 04:33:13 437.405
BEESAT 01 May 04:21:08 04:23:31 14° 274° (W) 04:25:55 436.000
Oscar 19 01 May 04:30:34 04:35:00 29° 301° (WNW) 04:39:25 437.125/150
DANDE 01 May 04:44:49 04:50:10 35° 268° (W) 04:56:43 436.750
GONETS M04 01 May 04:46:54 04:52:49 19° 316° (NW) 04:58:45
HORYU 2 01 May 04:55:24 04:57:27 13° 86° (E) 04:59:29 437.375
JAS-2 01 May 04:58:06 05:03:59 26° 310° (NW) 05:10:05 435.910
AO-7 01 May 05:05:50 05:13:59 53° 102° (ESE) 05:22:05 29.400- 29.500
YUBILEINY 01 May 05:06:47 05:14:11 29° 56° (NE) 05:21:32 435.215
MOZHAYETS 4 01 May 05:07:02 05:11:18 38° 263° (W) 05:15:35
CUBESAT XI-V 01 May 05:09:26 05:13:41 38° 66° (ENE) 05:17:59 437.345
KKS-1 01 May 05:19:32 05:22:52 20° 269° (W) 05:26:13 437.445
AIST 2 01 May 05:30:23 05:34:32 62° 42° (NE) 05:38:39 435.215
STARS 01 May 05:41:23 05:44:48 21° 268° (W) 05:48:15 437.465
STRAND 1 01 May 05:41:38 05:44:29 15° 50° (NE) 05:47:19 437.568
ITAMSAT 1 01 May 05:44:35 05:49:11 33° 300° (WNW) 05:53:46 435.822/435.867
RS-15 01 May 05:46:26 05:58:31 64° 32° (NNE) 06:10:48 29.354- 29.394
Gurwin Techsat 1B 01 May 05:49:05 05:52:37 18° 309° (NW) 05:56:07 435.225
BEESAT 2 01 May 05:54:48 05:56:22 12° 249° (WSW) 05:57:55 435.950
Cosmos 2504 01 May 06:00:09 06:04:44 17° 48° (NE) 06:09:27 435.465 / 435.565
Cosmos 2491 01 May 06:00:19 06:06:15 21° 72° (ENE) 06:12:11 435.465 / 435.565
BRITE-PL 01 May 06:00:26 06:01:43 11° 79° (E) 06:03:01 437.365/2234.400
NOAA 15 01 May 06:08:46 06:11:50 15° 86° (E) 06:14:53 137.62
HORYU 2 01 May 06:30:15 06:34:43 87° 109° (ESE) 06:39:09 437.375
CUBESAT XI-V 01 May 06:47:00 06:51:09 33° 265° (W) 06:55:21 437.345
NOAA 18 01 May 06:55:23 07:00:12 30° 94° (E) 07:04:58 137.9125
CUTE-I 01 May 06:58:51 07:03:17 26° 92° (E) 07:07:42 437.470
AO-7 01 May 06:58:52 07:06:47 51° 304° (NW) 07:14:43 29.400- 29.500
YUBILEINY 01 May 07:03:27 07:12:12 87° 262° (W) 07:20:56 435.215
AIST 2 01 May 07:09:24 07:12:43 23° 242° (WSW) 07:16:01 435.215
STRAND 1 01 May 07:17:45 07:22:49 68° 70° (ENE) 07:27:54 437.568
GOMX 1 01 May 07:19:49 07:24:16 24° 89° (E) 07:28:37 467.674
PRISM 01 May 07:25:16 07:28:17 20° 59° (ENE) 07:31:20 437.425
DOVE 4 01 May 07:26:24 07:29:17 15° 83° (E) 07:32:06 437.250
LilacSat-2 01 May 07:29:13 07:32:52 39° 98° (E) 07:36:27 437.200
AUBIESAT-1 01 May 07:33:42 07:33:56 10° 90° (E) 07:34:09 437.475
BRITE-PL 01 May 07:35:49 07:41:24 55° 99° (E) 07:46:59 437.365/2234.400
HO-68 01 May 07:39:52 07:40:39 10° 77° (ENE) 07:41:26 435.675
Cubesat XI-IV 01 May 07:42:14 07:47:29 55° 100° (E) 07:52:42 437.490
NOAA 15 01 May 07:47:06 07:52:28 82° 106° (ESE) 07:57:48 137.62
Cosmos 2504 01 May 07:52:32 07:59:53 61° 73° (ENE) 08:07:42 435.465 / 435.565
Cosmos 2491 01 May 07:52:48 08:01:35 75° 95° (E) 08:10:26 435.465 / 435.565
RS-15 01 May 07:59:23 08:11:20 64° 240° (WSW) 08:23:22 29.354- 29.394
HORYU 2 01 May 08:07:56 08:10:42 16° 306° (NW) 08:13:28 437.375
CINEMA 3 01 May 08:23:25 08:26:09 15° 85° (E) 08:28:48 145.822/145.860
